| time (UTC) | temp F | wind direction | speed MPH | gust MPH | rain 1hr in | rain 24hr in | rain mn in | humidity % | barometer mb |
| 20260505073337 | 71 | 100 | 2.0 | 4.0 | 0.00 | 0.00 | 0.00 | 39 | 1020.5 |
| 20260505072438 | 70 | 166 | 2.0 | 4.0 | 0.00 | 0.00 | 0.00 | 41 | 1020.5 |
| 20260505071537 | 70 | 178 | 2.0 | 4.0 | 0.00 | 0.00 | 0.00 | 43 | 1020.5 |
| 20260505070638 | 69 | 162 | 2.0 | 2.0 | 0.00 | 0.00 | 0.00 | 44 | 1020.5 |
| 20260505065737 | 68 | 262 | 1.0 | 2.0 | 0.00 | 0.00 | 0.00 | 45 | 1020.4 |
| 20260505064837 | 67 | 270 | 0.0 | 2.0 | 0.00 | 0.00 | 0.00 | 47 | 1020.4 |
| 20260505063937 | 66 | 270 | 1.0 | 2.0 | 0.00 | 0.00 | 0.00 | 47 | 1020.5 |
| 20260505063038 | 67 | 274 | 1.0 | 2.0 | 0.00 | 0.00 | 0.00 | 48 | 1020.3 |
| 20260505062138 | 65 | 287 | 1.0 | 4.0 | 0.00 | 0.00 | 0.00 | 50 | 1020.4 |
| 20260505061237 | 62 | 290 | 2.0 | 4.0 | 0.00 | 0.00 | 0.00 | 53 | 1020.4 |
| 20260505055438 | 63 | 270 | 0.0 | 2.0 | 0.00 | 0.00 | 0.00 | 55 | 1020.5 |
| 20260505054537 | 62 | 270 | 0.0 | 2.0 | 0.00 | 0.00 | 0.00 | 58 | 1020.4 |
| 20260505053637 | 61 | 270 | 0.0 | 2.0 | 0.00 | 0.00 | 0.00 | 59 | 1020.4 |
| 20260505052737 | 61 | 270 | 0.0 | 2.0 | 0.00 | 0.00 | 0.00 | 59 | 1020.5 |
| 20260505051837 | 59 | 270 | 0.0 | 2.0 | 0.00 | 0.00 | 0.00 | 63 | 1020.5 |
| 20260505050938 | 57 | 270 | 0.0 | 2.0 | 0.00 | 0.00 | 0.00 | 66 | 1020.3 |
| 20260505041537 | 53 | 270 | 0.0 | 2.0 | 0.00 | 0.00 | 0.00 | 71 | 1020.2 |
| 20260505040637 | 52 | 270 | 0.0 | 2.0 | 0.00 | 0.00 | 0.00 | 71 | 1020.2 |
| 20260505035738 | 52 | 270 | 0.0 | 2.0 | 0.00 | 0.00 | 0.00 | 71 | 1020.2 |
| 20260505034837 | 52 | 278 | 0.0 | 2.0 | 0.00 | 0.00 | 0.00 | 71 | 1020.2 |
| 20260505033937 | 52 | 292 | 1.0 | 2.0 | 0.00 | 0.00 | 0.00 | 71 | 1020.2 |
| 20260505033037 | 51 | 292 | 0.0 | 2.0 | 0.00 | 0.00 | 0.00 | 71 | 1020.1 |
| 20260505032137 | 52 | 292 | 0.0 | 2.0 | 0.00 | 0.00 | 0.00 | 70 | 1020.2 |
| 20260505031237 | 52 | 292 | 0.0 | 2.0 | 0.00 | 0.00 | 0.00 | 70 | 1020.2 |
| 20260505030337 | 52 | 292 | 0.0 | 2.0 | 0.00 | 0.00 | 0.00 | 69 | 1020.3 |
| 20260505024537 | 52 | 292 | 0.0 | 2.0 | 0.00 | 0.00 | 0.00 | 69 | 1020.1 |
| 20260505023637 | 52 | 292 | 0.0 | 2.0 | 0.00 | 0.00 | 0.00 | 69 | 1020.2 |
| 20260505022737 | 52 | 0 | 0.0 | 0.0 | 0.00 | 0.00 | 0.00 | 69 | 1020.3 |
| 20260505021837 | 52 | 292 | 0.0 | 2.0 | 0.00 | 0.00 | 0.00 | 69 | 1020.3 |
| 20260505020037 | 52 | 292 | 0.0 | 2.0 | 0.00 | 0.00 | 0.00 | 69 | 1020.2 |
| 20260505015137 | 52 | 292 | 0.0 | 2.0 | 0.00 | 0.00 | 0.00 | 70 | 1020.4 |
| 20260505014237 | 52 | 292 | 0.0 | 2.0 | 0.00 | 0.00 | 0.00 | 70 | 1020.4 |
| 20260505013337 | 53 | 292 | 0.0 | 2.0 | 0.00 | 0.00 | 0.00 | 69 | 1020.4 |
| 20260505011537 | 53 | 292 | 0.0 | 2.0 | 0.00 | 0.00 | 0.00 | 70 | 1020.4 |
| 20260505005737 | 53 | 292 | 0.0 | 2.0 | 0.00 | 0.00 | 0.00 | 69 | 1020.5 |
| 20260505004837 | 53 | 292 | 0.0 | 2.0 | 0.00 | 0.00 | 0.00 | 69 | 1020.5 |
| 20260505003937 | 53 | 292 | 1.0 | 2.0 | 0.00 | 0.00 | 0.00 | 69 | 1020.6 |
| 20260505002137 | 53 | 292 | 0.0 | 2.0 | 0.00 | 0.00 | 0.00 | 68 | 1020.6 |
| 20260505001237 | 54 | 292 | 0.0 | 2.0 | 0.00 | 0.00 | 0.00 | 67 | 1020.7 |
| 20260505000337 | 53 | 292 | 0.0 | 2.0 | 0.00 | 0.00 | 0.00 | 66 | 1020.8 |
| 20260504235437 | 54 | 292 | 0.0 | 2.0 | 0.00 | 0.00 | 0.00 | 66 | 1020.9 |
| 20260504234537 | 54 | 292 | 1.0 | 2.0 | 0.00 | 0.00 | 0.00 | 66 | 1020.9 |
| 20260504233637 | 54 | 292 | 1.0 | 2.0 | 0.00 | 0.00 | 0.00 | 67 | 1021.0 |
| 20260504232737 | 53 | 292 | 0.0 | 2.0 | 0.00 | 0.00 | 0.00 | 67 | 1021.0 |
| 20260504231837 | 54 | 292 | 0.0 | 2.0 | 0.00 | 0.00 | 0.00 | 67 | 1021.1 |
| 20260504230937 | 54 | 0 | 0.0 | 0.0 | 0.00 | 0.00 | 0.00 | 66 | 1021.2 |
| 20260504230037 | 54 | 292 | 0.0 | 2.0 | 0.00 | 0.00 | 0.00 | 65 | 1021.3 |
| 20260504225137 | 55 | 292 | 0.0 | 2.0 | 0.00 | 0.00 | 0.00 | 65 | 1021.3 |
| 20260504224237 | 55 | 292 | 1.0 | 2.0 | 0.00 | 0.00 | 0.00 | 66 | 1021.4 |
| 20260504223337 | 55 | 0 | 0.0 | 0.0 | 0.00 | 0.00 | 0.00 | 66 | 1021.4 |
| 20260504222437 | 55 | 292 | 0.0 | 2.0 | 0.00 | 0.00 | 0.00 | 66 | 1021.5 |
| 20260504221538 | 55 | 292 | 0.0 | 2.0 | 0.00 | 0.00 | 0.00 | 66 | 1021.5 |
| 20260504220637 | 55 | 292 | 0.0 | 2.0 | 0.00 | 0.00 | 0.00 | 69 | 1021.5 |
| 20260504215737 | 56 | 292 | 0.0 | 2.0 | 0.00 | 0.00 | 0.00 | 70 | 1021.6 |
| 20260504214837 | 57 | 292 | 0.0 | 2.0 | 0.00 | 0.00 | 0.00 | 70 | 1021.7 |
| 20260504213937 | 57 | 292 | 0.0 | 2.0 | 0.00 | 0.00 | 0.00 | 69 | 1021.7 |
| 20260504213037 | 58 | 292 | 1.0 | 2.0 | 0.00 | 0.00 | 0.00 | 68 | 1021.6 |
| 20260504211237 | 58 | 292 | 2.0 | 2.0 | 0.00 | 0.00 | 0.00 | 67 | 1021.6 |
| 20260504210337 | 58 | 282 | 2.0 | 4.0 | 0.00 | 0.00 | 0.00 | 67 | 1021.6 |
| 20260504205437 | 59 | 272 | 2.0 | 4.0 | 0.00 | 0.00 | 0.00 | 67 | 1021.7 |
| 20260504203637 | 58 | 270 | 0.0 | 4.0 | 0.00 | 0.00 | 0.00 | 66 | 1021.7 |
| 20260504202737 | 59 | 265 | 1.0 | 4.0 | 0.00 | 0.00 | 0.00 | 66 | 1021.7 |
| 20260504201837 | 59 | 262 | 0.0 | 4.0 | 0.00 | 0.00 | 0.00 | 66 | 1021.9 |
| 20260504200937 | 59 | 265 | 1.0 | 4.0 | 0.00 | 0.00 | 0.00 | 66 | 1021.8 |
| 20260504200037 | 59 | 248 | 1.0 | 4.0 | 0.00 | 0.00 | 0.00 | 65 | 1021.9 |
| 20260504195137 | 59 | 245 | 1.0 | 6.0 | 0.00 | 0.00 | 0.00 | 64 | 1021.9 |
| 20260504194237 | 59 | 244 | 1.0 | 4.0 | 0.00 | 0.00 | 0.00 | 63 | 1021.9 |
| 20260504193337 | 59 | 247 | 2.0 | 4.0 | 0.00 | 0.00 | 0.00 | 63 | 1021.9 |
| 20260504192437 | 59 | 241 | 2.0 | 4.0 | 0.00 | 0.00 | 0.00 | 62 | 1021.8 |
| 20260504191537 | 59 | 240 | 2.0 | 4.0 | 0.00 | 0.00 | 0.00 | 62 | 1021.8 |
| 20260504190637 | 60 | 227 | 1.0 | 4.0 | 0.00 | 0.00 | 0.00 | 61 | 1021.7 |
| 20260504184837 | 60 | 225 | 2.0 | 6.0 | 0.00 | 0.00 | 0.00 | 60 | 1021.6 |
| 20260504183937 | 60 | 173 | 1.0 | 4.0 | 0.00 | 0.00 | 0.00 | 59 | 1021.6 |
| 20260504183037 | 60 | 179 | 1.0 | 4.0 | 0.00 | 0.00 | 0.00 | 58 | 1021.6 |
| 20260504182137 | 60 | 228 | 1.0 | 7.0 | 0.00 | 0.00 | 0.00 | 59 | 1021.6 |
| 20260504181237 | 60 | 263 | 1.0 | 4.0 | 0.00 | 0.00 | 0.00 | 58 | 1021.6 |
| 20260504180337 | 60 | 268 | 1.0 | 4.0 | 0.00 | 0.00 | 0.00 | 58 | 1021.5 |
| 20260504175437 | 60 | 244 | 1.0 | 4.0 | 0.00 | 0.00 | 0.00 | 57 | 1021.4 |
| 20260504173637 | 60 | 255 | 2.0 | 7.0 | 0.00 | 0.00 | 0.00 | 57 | 1021.4 |
| 20260504172737 | 60 | 257 | 2.0 | 7.0 | 0.00 | 0.00 | 0.00 | 58 | 1021.4 |
| 20260504171837 | 61 | 250 | 2.0 | 4.0 | 0.00 | 0.00 | 0.00 | 57 | 1021.3 |
| 20260504170937 | 61 | 246 | 2.0 | 7.0 | 0.00 | 0.00 | 0.00 | 57 | 1021.3 |
| 20260504150337 | 72 | 298 | 2.0 | 8.0 | 0.00 | 0.00 | 0.00 | 25 | 1021.4 |
| 20260504140937 | 73 | 314 | 2.0 | 11.0 | 0.00 | 0.00 | 0.00 | 25 | 1021.5 |
| 20260504130637 | 67 | 299 | 16.0 | 21.0 | 0.00 | 0.00 | 0.00 | 29 | 1021.9 |
| 20260504081837 | 64 | 328 | 2.0 | 16.0 | 0.00 | 0.00 | 0.00 | 36 | 1023.9 |
| 20260504080937 | 64 | 301 | 4.0 | 13.0 | 0.00 | 0.00 | 0.00 | 37 | 1023.8 |